Skip Page Navigation
NASA JPL Caltech
NASA Logo - Jet Propulsion Laboratory + View the NASA Portal
+ Center for Near-Earth Object Studies
JPL Home Earth Solar System Stars & Galaxies Technology
JPL Solar System Dynamics
BODIES ORBITS EPHEMERIDES TOOLS PHYSICAL DATA DISCOVERY FAQ SITE MAP
IMPORTANT: The SSD Announcement email list is now available. Major changes are coming in the near future, including possible hostname and/or URL changes. To be notified of such changes, subscribe to this email list.

Please visit this page for more details.


JPL Small-Body Database Browser
Search: [ help ]  
48096 (2001 FP51)
Classification: Main-belt Asteroid          SPK-ID: 2048096
Ephemeris | Orbit Diagram | Orbital Elements | Mission Design | Physical Parameters | Discovery Circumstances ]

[ show orbit diagram ]
Orbital Elements at Epoch 2458600.5 (2019-Apr-27.0) TDB
Reference: JPL 17 (heliocentric ecliptic J2000)
 Element Value Uncertainty (1-sigma)   Units 
e .09172261283562023 3.5913e-08  
a 2.396461651240478 1.0218e-08 au
q 2.176651927028337 8.7017e-08 au
i 1.807574783715252 3.8928e-06 deg
node 71.33208111788019 0.00013985 deg
peri 178.6228838627928 0.00014184 deg
M 265.915163882305 2.4096e-05 deg
tp 2458954.636984088970
(2020-Apr-15.13698409)
9.1003e-05 TDB
period 1355.046355318586
3.71
8.6666e-06
2.373e-08
d
yr
n .2656735679831117 1.6992e-09 deg/d
Q 2.61627137545262 1.1155e-08 au
  Orbit Determination Parameters
   # obs. used (total)      764  
   data-arc span      10041 days (27.49 yr)  
   first obs. used      1991-10-05  
   last obs. used      2019-04-02  
   planetary ephem.      DE431  
   SB-pert. ephem.      SB431-N16  
   condition code      0  
   norm. resid. RMS      .58481  
   source      ORB  
   producer      Otto Matic  
   solution date      2019-Jul-13 02:45:02  

Additional Information
 Earth MOID = 1.16226 au 
 Jupiter MOID = 2.39753 au 
 T_jup = 3.522 
[ show covariance matrix ]

Ephemeris | Orbit Diagram | Orbital Elements | Mission Design | Physical Parameters | Discovery Circumstances ]

Physical Parameter Table
Parameter Symbol Value Units Sigma Reference Notes
absolute magnitude H 15.9   n/a MPO436119  

48096 (2001 FP51)          Discovered 2001-Mar-18 by LINEAR at Socorro
Reference: 20020921/Numbers.arcLast Updated: 2004-04-19

Alternate Designations
 2001 FP51 = 1999 XD79 
Ephemeris | Orbit Diagram | Orbital Elements | Mission Design | Physical Parameters | Discovery Circumstances ]
ABOUT SSD CREDITS/AWARDS PRIVACY/COPYRIGHT GLOSSARY LINKS
FirstGov
(server date/time)  
NASA Home Page
Site Manager:   Ryan S. Park
Webmaster  Alan B. Chamberlin